Coleman, TX

8:13 PM CST on December 10, 2016 (GMT -0600)
Coleman Municipal

Weather History for KCOM - May, 2012

Change the Weather History Date:

Monday, May 7, 2012

  Actual Average (KABI) Record (KABI)
Temperature  
Mean Temperature 73 °F -  
Max Temperature 82 °F 82 °F 106 °F (2000)
Min Temperature 64 °F 57 °F 37 °F (1906)
Cooling Degree Days 8    
Growing Degree Days 23 (Base 50)    
Moisture  
Dew Point 60 °F    
Average Humidity 68    
Maximum Humidity 89    
Minimum Humidity 50    
Precipitation  
Precipitation 0.42 in - - ()
Sea Level Pressure  
Sea Level Pressure 29.94 in    
Wind  
Wind Speed 9 mph (NE)    
Max Wind Speed 20 mph    
Max Gust Speed 24 mph    
Visibility 10 miles    
Events Rain , Thunderstorm    
Averages and records for this station are not official NWS values.
T = Trace of Precipitation, MM = Missing Value Source: NWS Daily Summary

Daily Weather History Graph

Daily Weather History Graph

Search for Another Location

Airport or City:

Trip Planner

Search our weather history database for the weather conditions in past years. The results will help you decide how hot, cold, wet, or windy it might be!

Date:

Astronomy

May. 07, 2012 Rise Set
Actual Time 6:46 AM CDT 8:22 PM CDT
Civil Twilight 6:19 AM CDT 8:48 PM CDT
Nautical Twilight 5:48 AM CDT 9:20 PM CDT
Astronomical Twilight 5:15 AM CDT 9:53 PM CDT
Moon 10:30 PM CDT (5/7) 7:58 AM CDT (5/7)
Length of Visible Light 14h 29m
Length of Day
13h 36m
Waning Gibbous, 96% of the Moon is Illuminated
May 7
Waning Gibbous
May 12
Last Quarter
May 20
New
May 28
First Quarter
Jun 4
Full

Hourly Weather History & Observations

Time (CDT) Temp. Heat Index Dew Point Humidity Pressure Visibility Wind Dir Wind Speed Gust Speed Precip Events Conditions
12:15 AM 75.9 °F - 59.4 °F 56% 29.90 in 10.0 mi ENE 8.1 mph - N/A   Clear
12:35 AM 75.9 °F - 60.1 °F 58% 29.92 in 10.0 mi ENE 9.2 mph - N/A   Clear
12:55 AM 76.1 °F - 62.1 °F 62% 29.93 in 10.0 mi ENE 10.4 mph 18.4 mph N/A   Mostly Cloudy
1:15 AM 74.5 °F - 62.6 °F 66% 29.93 in 10.0 mi East 17.3 mph 24.2 mph N/A   Mostly Cloudy
1:35 AM 72.9 °F - 61.9 °F 68% 29.93 in 10.0 mi ESE 18.4 mph 23.0 mph N/A   Scattered Clouds
1:55 AM 72.1 °F - 61.5 °F 69% 29.91 in 10.0 mi ESE 12.7 mph 21.9 mph N/A   Clear
2:15 AM 71.8 °F - 60.6 °F 68% 29.91 in 10.0 mi ESE 12.7 mph 19.6 mph N/A   Clear
2:35 AM 71.4 °F - 58.6 °F 64% 29.90 in 10.0 mi ESE 10.4 mph 16.1 mph N/A   Clear
2:55 AM 71.6 °F - 56.1 °F 58% 29.90 in 10.0 mi SSE 5.8 mph - N/A   Clear
3:15 AM 71.1 °F - 54.5 °F 56% 29.90 in 10.0 mi SE 5.8 mph - N/A   Clear
3:35 AM 70.2 °F - 54.0 °F 56% 29.90 in 10.0 mi South 5.8 mph - N/A   Clear
3:55 AM 69.4 °F - 53.8 °F 57% 29.90 in 10.0 mi SSW 4.6 mph - N/A   Clear
4:15 AM 69.1 °F - 54.0 °F 58% 29.89 in 10.0 mi South 4.6 mph - N/A   Clear
4:35 AM 69.1 °F - 54.7 °F 60% 29.89 in 10.0 mi South 5.8 mph - N/A   Clear
4:55 AM 68.7 °F - 54.7 °F 61% 29.88 in 10.0 mi South 6.9 mph - N/A   Clear
5:15 AM 68.5 °F - 55.0 °F 62% 29.88 in 10.0 mi SSW 5.8 mph - N/A   Clear
5:35 AM 68.4 °F - 55.4 °F 63% 29.88 in 10.0 mi SSW 6.9 mph - N/A   Clear
5:55 AM 67.8 °F - 55.9 °F 66% 29.88 in 10.0 mi South 3.5 mph - N/A   Clear
6:35 AM 66.7 °F - 56.3 °F 69% 29.89 in 10.0 mi SSW 3.5 mph - N/A   Clear
6:55 AM 66.7 °F - 56.5 °F 70% 29.89 in 10.0 mi WSW 3.5 mph - N/A   Clear
7:15 AM 66.4 °F - 57.2 °F 72% 29.90 in 10.0 mi NNE 3.5 mph - N/A   Clear
7:35 AM 66.7 °F - 58.8 °F 76% 29.91 in 10.0 mi NNW 3.5 mph - N/A   Clear
7:55 AM 68.9 °F - 59.7 °F 72% 29.92 in 10.0 mi NNW 3.5 mph - N/A   Clear
8:15 AM 70.3 °F - 60.4 °F 71% 29.93 in 10.0 mi North 8.1 mph - N/A   Clear
8:35 AM 71.4 °F - 60.4 °F 68% 29.94 in 10.0 mi North 9.2 mph - N/A   Clear
8:55 AM 73.4 °F - 60.6 °F 64% 29.94 in 10.0 mi NNE 8.1 mph - N/A   Clear
9:15 AM 74.5 °F - 59.7 °F 60% 29.95 in 10.0 mi North 10.4 mph - N/A   Clear
9:35 AM 75.2 °F - 58.6 °F 56% 29.95 in 10.0 mi NNE 10.4 mph - N/A   Clear
9:55 AM 75.7 °F - 59.0 °F 56% 29.95 in 10.0 mi NNE 8.1 mph - N/A   Clear
10:15 AM 76.8 °F - 59.5 °F 55% 29.96 in 10.0 mi NNE 6.9 mph - N/A   Clear
10:35 AM 77.5 °F - 59.9 °F 54% 29.96 in 10.0 mi NNE 8.1 mph - N/A   Clear
10:55 AM 78.3 °F - 60.3 °F 54% 29.96 in 10.0 mi North 5.8 mph - N/A   Clear
11:15 AM 79.2 °F - 60.6 °F 53% 29.96 in 10.0 mi ENE 9.2 mph - N/A   Clear
11:35 AM 79.3 °F - 61.0 °F 53% 29.96 in 10.0 mi NNE 4.6 mph - N/A   Clear
11:55 AM 80.1 °F 81.1 °F 61.5 °F 53% 29.96 in 10.0 mi NE 9.2 mph - N/A   Clear
12:15 PM 80.6 °F 81.6 °F 61.5 °F 52% 29.96 in 10.0 mi North 4.6 mph - N/A   Clear
12:35 PM 81.1 °F 82.0 °F 61.7 °F 51% 29.95 in 10.0 mi NNE 8.1 mph - N/A   Clear
12:55 PM 82.2 °F 83.0 °F 61.9 °F 50% 29.95 in 10.0 mi ENE 10.4 mph 17.3 mph N/A   Scattered Clouds
1:15 PM 82.6 °F 83.4 °F 62.1 °F 50% 29.93 in 10.0 mi ENE 11.5 mph 19.6 mph N/A   Mostly Cloudy
1:55 PM 81.5 °F 82.4 °F 61.9 °F 51% 29.91 in 10.0 mi ENE 12.7 mph 18.4 mph N/A   Mostly Cloudy
2:15 PM 79.9 °F - 61.9 °F 54% 29.92 in 10.0 mi ENE 11.5 mph 19.6 mph N/A   Scattered Clouds
2:35 PM 78.4 °F - 61.9 °F 57% 29.92 in 10.0 mi NE 15.0 mph 19.6 mph N/A Thunderstorm Scattered Clouds
2:55 PM 77.9 °F - 61.9 °F 58% 29.88 in 10.0 mi NE 16.1 mph 24.2 mph N/A Thunderstorm Mostly Cloudy
3:15 PM 77.2 °F - 61.7 °F 59% 29.94 in 10.0 mi NNE 9.2 mph 17.3 mph N/A Thunderstorm Thunderstorm
3:35 PM 77.2 °F - 61.3 °F 58% 29.92 in 10.0 mi NE 10.4 mph - N/A Thunderstorm Overcast
3:55 PM 76.6 °F - 61.5 °F 59% 29.95 in 10.0 mi North 8.1 mph - N/A Rain , Thunderstorm Light Thunderstorms and Rain
4:55 PM 69.8 °F - 65.7 °F 87% 30.00 in 7.0 mi WNW 10.4 mph - 0.23 in Rain , Thunderstorm Thunderstorms and Rain
5:15 PM 70.0 °F - 65.5 °F 86% 30.03 in 5.0 mi NW 10.4 mph - 0.04 in Rain , Thunderstorm Thunderstorms and Rain
5:35 PM 69.6 °F - 64.8 °F 84% 30.01 in 7.0 mi NNW 12.7 mph 20.7 mph 0.09 in Rain , Thunderstorm Thunderstorms and Rain
5:55 PM 67.8 °F - 62.8 °F 84% 29.99 in 5.0 mi NE 9.2 mph - 0.15 in Rain , Thunderstorm Rain
6:15 PM 67.3 °F - 63.7 °F 88% 29.99 in 10.0 mi East 5.8 mph - N/A Rain , Thunderstorm Light Thunderstorms and Rain
6:35 PM 67.5 °F - 64.0 °F 89% 29.96 in 10.0 mi NE 6.9 mph - 0.01 in Rain Light Rain
6:55 PM 67.3 °F - 63.9 °F 89% 29.94 in 10.0 mi ENE 10.4 mph - 0.01 in   Clear
7:15 PM 67.6 °F - 63.1 °F 85% 29.90 in 10.0 mi NE 16.1 mph 20.7 mph N/A   Clear
7:35 PM 67.5 °F - 63.5 °F 87% 29.93 in 10.0 mi East 10.4 mph 20.7 mph N/A   Clear
7:55 PM 67.1 °F - 63.7 °F 89% 29.92 in 10.0 mi East 15.0 mph - N/A Rain Light Rain
8:15 PM 66.6 °F - 63.0 °F 88% 29.93 in 10.0 mi East 15.0 mph 21.9 mph N/A   Scattered Clouds
8:35 PM 65.5 °F - 62.1 °F 89% 29.95 in 10.0 mi East 8.1 mph 18.4 mph N/A   Scattered Clouds
8:55 PM 65.7 °F - 61.9 °F 88% 29.93 in 10.0 mi SE 19.6 mph 23.0 mph 0.01 in Rain , Thunderstorm Thunderstorms and Rain
9:15 PM 65.3 °F - 61.5 °F 88% 29.97 in 10.0 mi East 6.9 mph - 0.01 in Rain Light Rain
9:35 PM 65.5 °F - 61.0 °F 85% 30.00 in 10.0 mi Calm Calm - 0.01 in Rain Light Rain
9:55 PM 65.7 °F - 60.8 °F 84% 30.00 in 10.0 mi West 4.6 mph - 0.01 in Thunderstorm Thunderstorm
10:15 PM 65.3 °F - 61.3 °F 87% 29.96 in 10.0 mi ESE 3.5 mph - N/A Rain Light Rain
10:35 PM 64.9 °F - 61.7 °F 89% 29.91 in 10.0 mi NNE 13.8 mph - 0.01 in Rain Light Rain
11:15 PM 65.1 °F - 60.4 °F 85% 29.98 in 10.0 mi NNW 10.4 mph - N/A   Clear
11:35 PM 65.1 °F - 61.0 °F 86% 30.00 in 10.0 mi NNW 5.8 mph - N/A   Clear
11:55 PM 64.4 °F - 60.8 °F 88% 29.99 in 10.0 mi North 6.9 mph - N/A   Clear